Leesburg, VA

7:22 AM EDT on August 22, 2019 (GMT -0400)
Leesburg Executive

Weather History for KJYO - April, 2019

Change the Weather History Date:

Saturday, April 27, 2019

  Actual Average (KIAD) Record (KIAD)
Temperature  
Mean Temperature 60 °F -  
Max Temperature 69 °F 68 °F 92 °F (1990)
Min Temperature 50 °F 42 °F 31 °F (1972)
Degree Days  
Heating Degree Days 6    
Growing Degree Days 10 (Base 50)    
Moisture  
Dew Point 37 °F    
Average Humidity 46    
Maximum Humidity 82    
Minimum Humidity 25    
Precipitation  
Precipitation 0.00 in - - ()
Sea Level Pressure  
Sea Level Pressure 29.77 in    
Wind  
Wind Speed 15 mph (WNW)    
Max Wind Speed 31 mph    
Max Gust Speed 43 mph    
Visibility 10 miles    
Events      
Averages and records for this station are not official NWS values.
T = Trace of Precipitation, MM = Missing Value Source: NWS Daily Summary

Daily Weather History Graph

Daily Weather History Graph

Search for Another Location

Airport or City:

Astronomy

Apr. 27, 2019 Rise Set
Actual Time 6:17 AM EDT 7:59 PM EDT
Civil Twilight 5:48 AM EDT 8:27 PM EDT
Nautical Twilight 5:14 AM EDT 9:02 PM EDT
Astronomical Twilight 4:37 AM EDT 9:39 PM EDT
Moon 2:50 AM EDT (4/27) 1:00 PM EDT (4/27)
Length of Visible Light 14h 38m
Length of Day
13h 41m
Last Quarter, 43% of the Moon is Illuminated
Apr 27
Last Quarter
May 4
New
May 11
First Quarter
May 18
Full
May 26
Last Quarter

Hourly Weather History & Observations

Time (EDT) Temp. Dew Point Humidity Pressure Visibility Wind Dir Wind Speed Gust Speed Precip Events Conditions
12:15 AM 55.4 °F 44.6 °F 67% 29.66 in 10.0 mi WNW 11.5 mph 19.6 mph N/A   Overcast
12:35 AM 55.4 °F 44.6 °F 67% 29.67 in 10.0 mi WNW 10.4 mph 20.7 mph N/A   Overcast
12:55 AM 53.6 °F 46.4 °F 77% 29.67 in 10.0 mi West 13.8 mph 24.2 mph N/A   Overcast
1:15 AM 53.6 °F 48.2 °F 82% 29.67 in 10.0 mi West 10.4 mph 24.2 mph N/A   Overcast
1:35 AM 53.6 °F 48.2 °F 82% 29.68 in 10.0 mi WNW 11.5 mph 19.6 mph N/A   Overcast
1:55 AM 53.6 °F 48.2 °F 82% 29.68 in 10.0 mi West 12.7 mph 17.3 mph N/A   Overcast
2:15 AM 53.6 °F 46.4 °F 77% 29.68 in 10.0 mi WNW 9.2 mph - N/A   Mostly Cloudy
2:35 AM 51.8 °F 46.4 °F 82% 29.68 in 10.0 mi WNW 9.2 mph - N/A   Scattered Clouds
2:55 AM 51.8 °F 46.4 °F 82% 29.67 in 10.0 mi WNW 15.0 mph 21.9 mph N/A   Clear
3:15 AM 51.8 °F 46.4 °F 82% 29.68 in 10.0 mi WNW 15.0 mph 21.9 mph N/A   Clear
3:35 AM 53.6 °F 44.6 °F 72% 29.68 in 10.0 mi WNW 15.0 mph 24.2 mph N/A   Clear
3:55 AM 53.6 °F 44.6 °F 72% 29.69 in 10.0 mi WNW 20.7 mph 26.5 mph N/A   Clear
4:15 AM 53.6 °F 42.8 °F 67% 29.70 in 10.0 mi WNW 17.3 mph 26.5 mph N/A   Clear
4:35 AM 53.6 °F 41.0 °F 62% 29.70 in 10.0 mi WNW 18.4 mph 28.8 mph N/A   Clear
4:55 AM 51.8 °F 41.0 °F 67% 29.70 in 10.0 mi WNW 19.6 mph 27.6 mph N/A   Clear
5:15 AM 51.8 °F 41.0 °F 67% 29.71 in 10.0 mi WNW 20.7 mph 27.6 mph N/A   Clear
5:35 AM 51.8 °F 39.2 °F 62% 29.72 in 10.0 mi WNW 18.4 mph 26.5 mph N/A   Clear
5:55 AM 51.8 °F 39.2 °F 62% 29.72 in 10.0 mi WNW 21.9 mph 26.5 mph N/A   Clear
6:15 AM 51.8 °F 37.4 °F 58% 29.73 in 10.0 mi NW 18.4 mph 28.8 mph N/A   Clear
6:35 AM 50.0 °F 35.6 °F 58% 29.74 in 10.0 mi NW 17.3 mph 20.7 mph N/A   Clear
6:55 AM 50.0 °F 35.6 °F 58% 29.75 in 10.0 mi WNW 11.5 mph 17.3 mph N/A   Clear
7:15 AM 51.8 °F 35.6 °F 54% 29.76 in 10.0 mi WNW 15.0 mph 20.7 mph N/A   Clear
7:35 AM 51.8 °F 35.6 °F 54% 29.76 in 10.0 mi WNW 13.8 mph 23.0 mph N/A   Clear
7:55 AM 53.6 °F 35.6 °F 51% 29.77 in 10.0 mi WNW 15.0 mph 26.5 mph N/A   Clear
8:15 AM 53.6 °F 33.8 °F 47% 29.77 in 10.0 mi WNW 17.3 mph 24.2 mph N/A   Clear
8:35 AM 55.4 °F 33.8 °F 44% 29.77 in 10.0 mi WNW 24.2 mph 31.1 mph N/A   Clear
8:55 AM 55.4 °F 33.8 °F 44% 29.78 in 10.0 mi WNW 19.6 mph 31.1 mph N/A   Clear
9:15 AM 59.0 °F 35.6 °F 42% 29.78 in 10.0 mi NW 16.1 mph 29.9 mph N/A   Clear
9:35 AM 59.0 °F 35.6 °F 42% 29.79 in 10.0 mi WNW 23.0 mph 33.4 mph N/A   Clear
9:55 AM 59.0 °F 35.6 °F 42% 29.78 in 10.0 mi WNW 18.4 mph 27.6 mph N/A   Clear
10:15 AM 60.8 °F 35.6 °F 39% 29.77 in 10.0 mi NW 26.5 mph 40.3 mph N/A   Clear
10:35 AM 60.8 °F 35.6 °F 39% 29.77 in 10.0 mi WNW 23.0 mph 36.8 mph N/A   Clear
10:55 AM 60.8 °F 35.6 °F 39% 29.77 in 10.0 mi WNW 17.3 mph 36.8 mph N/A   Clear
11:15 AM 62.6 °F 33.8 °F 34% 29.77 in 10.0 mi WNW 24.2 mph 41.4 mph N/A   Clear
11:35 AM 62.6 °F 35.6 °F 37% 29.78 in 10.0 mi WNW 28.8 mph 39.1 mph N/A   Clear
11:55 AM 62.6 °F 33.8 °F 34% 29.78 in 10.0 mi WNW 25.3 mph 36.8 mph N/A   Clear
12:15 PM 64.4 °F 33.8 °F 32% 29.77 in 10.0 mi WNW 31.1 mph 42.6 mph N/A   Clear
12:35 PM 62.6 °F 32.0 °F 32% 29.77 in 10.0 mi NW 21.9 mph 39.1 mph N/A   Clear
12:55 PM 64.4 °F 33.8 °F 32% 29.77 in 10.0 mi WNW 24.2 mph 38.0 mph N/A   Clear
1:15 PM 64.4 °F 32.0 °F 30% 29.77 in 10.0 mi WNW 26.5 mph 34.5 mph N/A   Clear
1:35 PM 64.4 °F 33.8 °F 32% 29.76 in 10.0 mi West 19.6 mph 33.4 mph N/A   Clear
1:55 PM 66.2 °F 33.8 °F 30% 29.75 in 10.0 mi NW 23.0 mph 35.7 mph N/A   Clear
2:15 PM 66.2 °F 32.0 °F 28% 29.76 in 10.0 mi NW 21.9 mph 38.0 mph N/A   Clear
2:35 PM 66.2 °F 32.0 °F 28% 29.77 in 10.0 mi WNW 19.6 mph 31.1 mph N/A   Clear
2:55 PM 68.0 °F 32.0 °F 26% 29.76 in 10.0 mi WNW 24.2 mph 32.2 mph N/A   Clear
3:15 PM 68.0 °F 33.8 °F 28% 29.77 in 10.0 mi WNW 21.9 mph 31.1 mph N/A   Clear
3:35 PM 68.0 °F 33.8 °F 28% 29.77 in 10.0 mi NW 15.0 mph 28.8 mph N/A   Clear
3:55 PM 68.0 °F 32.0 °F 26% 29.77 in 10.0 mi WNW 16.1 mph 24.2 mph N/A   Clear
4:15 PM 69.8 °F 33.8 °F 27% 29.77 in 10.0 mi NW 16.1 mph 25.3 mph N/A   Clear
4:35 PM 69.8 °F 32.0 °F 25% 29.77 in 10.0 mi WNW 21.9 mph 26.5 mph N/A   Clear
4:55 PM 69.8 °F 32.0 °F 25% 29.78 in 10.0 mi NW 20.7 mph 25.3 mph N/A   Clear
5:15 PM 69.8 °F 35.6 °F 28% 29.78 in 10.0 mi NW 16.1 mph 28.8 mph N/A   Clear
5:35 PM 68.0 °F 33.8 °F 28% 29.80 in 10.0 mi NW 11.5 mph 21.9 mph N/A   Clear
5:55 PM 68.0 °F 32.0 °F 26% 29.81 in 10.0 mi NW 16.1 mph 23.0 mph N/A   Clear
6:15 PM 68.0 °F 32.0 °F 26% 29.82 in 10.0 mi WNW 15.0 mph 20.7 mph N/A   Clear
6:35 PM 68.0 °F 32.0 °F 26% 29.83 in 10.0 mi NW 13.8 mph 21.9 mph N/A   Clear
6:55 PM 66.2 °F 32.0 °F 28% 29.83 in 10.0 mi NNW 9.2 mph 17.3 mph N/A   Clear
7:15 PM 64.4 °F 32.0 °F 30% 29.83 in 10.0 mi NNW 8.1 mph 17.3 mph N/A   Clear
7:35 PM 64.4 °F 32.0 °F 30% 29.84 in 10.0 mi NNW 8.1 mph - N/A   Clear
7:55 PM 62.6 °F 32.0 °F 32% 29.84 in 10.0 mi NW 8.1 mph - N/A   Clear
8:15 PM 64.4 °F 32.0 °F 30% 29.84 in 10.0 mi NNW 8.1 mph - N/A   Clear
8:35 PM 64.4 °F 32.0 °F 30% 29.85 in 10.0 mi North 3.5 mph - N/A   Mostly Cloudy
8:50 PM 64.4 °F 32.0 °F 30% 29.86 in 10.0 mi NNW 4.6 mph - N/A   Overcast
9:15 PM 60.8 °F 37.4 °F 42% 29.88 in 10.0 mi West 3.5 mph - N/A   Overcast
9:35 PM 60.8 °F 37.4 °F 42% 29.88 in 10.0 mi West 3.5 mph - N/A   Overcast
9:55 PM 60.8 °F 35.6 °F 39% 29.89 in 10.0 mi West 4.6 mph - N/A   Overcast
10:15 PM 59.0 °F 41.0 °F 51% 29.89 in 10.0 mi NW 8.1 mph - N/A   Overcast
10:35 PM 60.8 °F 37.4 °F 42% 29.90 in 10.0 mi WNW 6.9 mph - N/A   Overcast
10:55 PM 60.8 °F 37.4 °F 42% 29.90 in 10.0 mi NNW 9.2 mph - N/A   Overcast
11:15 PM 59.0 °F 42.8 °F 55% 29.92 in 10.0 mi NW 10.4 mph - N/A   Overcast
11:35 PM 57.2 °F 44.6 °F 63% 29.94 in 10.0 mi NW 12.7 mph 18.4 mph N/A   Overcast
11:55 PM 55.4 °F 44.6 °F 67% 29.95 in 10.0 mi NW 10.4 mph - N/A   Overcast